Regional Weather Roundup
Issued by NWS

Home | Current Version | Previous Version | Graphics & Text | Print | Product List | Glossary On
Versions: 1 2 3 4 5 6 7 8 9 10 11 12 13 14 15 16 17 18 19 20 21 22 23 24 25 26 27 28 29 30 31 32 33 34 35 36 37 38 39 40 41 42 43 44 45 46 47 48 49 50
000
ASUS43 KLOT 280703
RWRIL

ILLINOIS REGIONAL WEATHER ROUNDUP
NATIONAL WEATHER SERVICE CHICAGO/ROMEOVILLE IL
200 AM CDT WED SEP 28 2016

NOTE: "FAIR" INDICATES FEW OR NO CLOUDS BELOW 12,000 FEET WITH NO
SIGNIFICANT WEATHER AND/OR OBSTRUCTIONS TO VISIBILITY.

* THESE STATIONS ARE NOT UNDER NWS QUALITY CONTROL. THEY ALSO MAY NOT
  REPORT WEATHER SUCH AS PRECIPITATION OR FOG.

ILZ001-002-007-009-015-016-024-280800-
NORTHWEST ILLINOIS

CITY           SKY/WX    TMP DP  RH WIND       PRES   REMARKS
MOLINE         CLOUDY    56  47  71 E6        29.80R
STERLING*      CLOUDY    53  47  79 CALM      29.81R
SAVANNA*       DRIZZLE   52  47  83 N7        29.81S
$$

ILZ003-004-008-010-011-017-018-280800-
NORTH CENTRAL ILLINOIS

CITY           SKY/WX    TMP DP  RH WIND       PRES   REMARKS
ROCKFORD       LGT RAIN  53  45  74 NW6       29.82R
FREEPORT*      DRIZZLE   48  46  91 NW3       29.83R
ROCHELLE*      CLOUDY    51  47  84 CALM      29.79F
$$

ILZ005-006-012>014-019>023-280800-
NORTHEAST ILLINOIS

CITY           SKY/WX    TMP DP  RH WIND       PRES   REMARKS
CHICAGO-OHARE  CLOUDY    54  45  71 NE9       29.77F
CHICAGO-MIDWAY CLOUDY    56  44  64 NE12      29.78F
AURORA         CLOUDY    53  46  77 N7        29.79R
LANSING*       CLOUDY    57  53  85 NE5       29.76S
JOLIET*        CLOUDY    56  48  74 N7        29.78R
WAUKEGAN       LGT RAIN  51  46  83 SW3       29.78S
DUPAGE AIRPORT CLOUDY    53  45  74 NW6       29.79R
KANKAKEE*      PTCLDY    53  45  75 NW6       29.76S
WHEELING       CLOUDY    53  46  77 CALM      29.79F
MORRIS*        CLOUDY    55  47  74 CALM      29.76R
ROMEOVILLE*    CLOUDY    54  49  83 NE7       29.78R
NORTHERLY ISL    N/A     55  44  66 N13         N/A
$$

LMZ740>746-280800-
SOUTHERN LAKE MICHIGAN

STATION/POSITION SKY/WX   TEMP    WIND        PRES    VSBY  WAVE
                          AIR SEA DIR/SP/G                  HT/PER
                          (F)     (DEG/KT/KT) (MB)    (MI)  (FT/S)
SOUTHERN BUOY              57 70  310/ 12/ 16 1008.0          2/ 4
WILMETTE HARBOR            54 59   10/  6/ 10   N/A           2/ 2
HARRISON CRIB              56     350/ 14/ 16   N/A
BURNHAM HARBOR             55      10/ 10/ 14   N/A
CALUMET HARBOR             56     330/  9/ 18 1008.3R
BURNS HARBOR               56      90/  7/ 10 1008.5S
MICHIGAN CITY              55      60/  8/  9   N/A
MICHIGAN CITY 6N           59 67   90/ 14/ 17   N/A           2/ 4
ST. JOSEPH                 57 66   80/ 10/ 12 1008.5F         2/ 5
$$

ILZ025>027-034>036-040-047-049-050-058-095>099-280800-
WEST-CENTRAL ILLINOIS

CITY           SKY/WX    TMP DP  RH WIND       PRES   REMARKS
QUINCY         CLEAR     58  51  78 SW6       29.79S
GALESBURG*     CLOUDY    55  45  69 MISG        N/A
MACOMB*        CLOUDY    58  49  71 NW6       29.79S
JACKSONVILLE*  PTCLDY    59  50  72 SW7       29.77S
PITTSFIELD*    MOCLDY    61  52  73 W3        29.80S
$$

ILZ028>032-037-038-041>044-048-051>054-059>061-280800-
CENTRAL ILLINOIS

CITY           SKY/WX    TMP DP  RH WIND       PRES   REMARKS
PONTIAC        LGT RAIN  57  46  67 N10       29.76S
BLOOMINGTON    CLOUDY    59  46  62 W6        29.76S
DECATUR        CLOUDY    60  50  69 SW8       29.77F
PEORIA         CLOUDY    59  46  62 NW3       29.76S
LACON*         CLOUDY    55  44  66 NE6       29.76R
LINCOLN*       PTCLDY    61  49  64 CALM      29.75S
SPRINGFIELD    CLOUDY    60  50  69 SW5       29.77F
TAYLORVILLE    CLOUDY    58  52  80 SW6       29.78F
$$

ILZ033-039-045-046-055>057-062-063-280800-
EAST-CENTRAL ILLINOIS

CITY           SKY/WX    TMP DP  RH WIND       PRES   REMARKS
CHAMPAIGN      PTCLDY    58  48  69 S7        29.76F
RANTOUL*       CLOUDY    59  47  64 SW3       29.75F
MATTOON        CLOUDY    61  52  72 SW8       29.78F
PARIS*         CLOUDY    60  53  76 CALM      29.79S
$$

ILZ079-100>102-280800-
SOUTHWEST ILLINOIS

CITY           SKY/WX    TMP DP  RH WIND       PRES   REMARKS
BELLEVILLE     CLEAR     61  54  78 SW7       29.81F
CAHOKIA*       PTCLDY    64  52  64 SW5       29.82F
SPARTA*        PTCLDY    61  52  71 SW5       29.86S
$$

ILZ064>066-069>071-074>076-080>082-084>086-088>090-092>094-280800-
SOUTH-CENTRAL ILLINOIS

CITY           SKY/WX    TMP DP  RH WIND       PRES   REMARKS
CARBONDALE     CLEAR     61  54  77 SW10      29.85F
EFFINGHAM*     PTCLDY    60  55  85 SW3       29.81F
MARION         PTCLDY    63  54  72 SW6       29.86F
MT. VERNON     CLEAR     57  48  72 SW7       29.84S
CENTRALIA*     CLEAR     60  55  83 SW7       29.81F
SALEM*         CLEAR     61  53  73 SW5       29.82F
METROPOLIS*    CLEAR     57  53  86 CALM      29.90S
$$

ILZ067-068-072-073-078-083-087-091-280800-
SOUTHEAST ILLINOIS

CITY           SKY/WX    TMP DP  RH WIND       PRES   REMARKS
LAWRENCEVILLE  PTCLDY    60  52  74 S7        29.81F
FLORA*         PTCLDY    59  54  83 SW7       29.81F
FAIRFIELD*     PTCLDY    61  54  77 SW5       29.81F
HARRISBURG*    CLEAR     59  54  82 SW3       29.86F
ROBINSON*      CLOUDY    60  53  76 SW8       29.81S
CARMI*         CLEAR     61  53  76 SW8       29.84S
$$

ABBREVIATIONS USED IN REMARKS
   TC - TEMPERATURE IN CELSIUS
  WCI - WIND CHILL INDEX
   HX - HEAT INDEX
  VSB - VISIBILITY
$$




USA.gov is the U.S. government's official web portal to all federal, state and local government web resources and services.